Rolla, MO

9:27 PM CST on December 10, 2017 (GMT -0600)
Rolla National

Weather History for KVIH - August, 2013

Change the Weather History Date:

Tuesday, August 20, 2013

  Actual Average Record
Temperature  
Mean Temperature 74 °F 76 °F  
Max Temperature 84 °F 87 °F 102 °F (1962)
Min Temperature 64 °F 65 °F 50 °F (1950)
Degree Days  
Heating Degree Days 0 0  
Month to date heating degree days 2 0  
Since 1 June heating degree days 21 15  
Since 1 July heating degree days 4 1  
Cooling Degree Days 9 11  
Month to date cooling degree days 133 244  
Year to date cooling degree days 739 968  
Since 1 June cooling degree days 632 861  
Growing Degree Days 23 (Base 50)    
Moisture  
Dew Point 65 °F    
Average Humidity 74    
Maximum Humidity 93    
Minimum Humidity 55    
Precipitation  
Precipitation 0.00 in 0.12 in 1.99 in (2007)
Month to date precipitation 4.29 2.34  
Year to date precipitation 32.98 28.22  
Sea Level Pressure  
Sea Level Pressure 30.06 in    
Wind  
Wind Speed 5 mph (South)    
Max Wind Speed 9 mph    
Max Gust Speed 17 mph    
Visibility 10 miles    
Events      
T = Trace of Precipitation, MM = Missing Value Source: NWS Daily Summary

Daily Weather History Graph

Daily Weather History Graph

Search for Another Location

Airport or City:

Trip Planner

Search our weather history database for the weather conditions in past years. The results will help you decide how hot, cold, wet, or windy it might be!

Date:

Astronomy

Aug. 20, 2013 Rise Set
Actual Time 6:26 AM CDT 7:53 PM CDT
Civil Twilight 5:58 AM CDT 8:21 PM CDT
Nautical Twilight 5:25 AM CDT 8:54 PM CDT
Astronomical Twilight 4:50 AM CDT 9:29 PM CDT
Moon 7:26 PM CDT (8/20) 5:56 AM CDT (8/20)
Length of Visible Light 14h 22m
Length of Day
13h 26m
Full, 100% of the Moon is Illuminated
Aug 20
Full
Aug 20
Full
Aug 28
Last Quarter
Sep 5
New
Sep 12
First Quarter

Hourly Weather History & Observations

Time (CDT) Temp. Heat Index Dew Point Humidity Pressure Visibility Wind Dir Wind Speed Gust Speed Precip Events Conditions
12:53 AM 68.0 °F - 64.9 °F 90% 30.05 in 10.0 mi SSE 4.6 mph - N/A   Clear
1:53 AM 66.0 °F - 63.0 °F 90% 30.05 in 9.0 mi South 5.8 mph - N/A   Clear
2:53 AM 64.9 °F - 63.0 °F 93% 30.05 in 9.0 mi SSW 5.8 mph - N/A   Clear
3:53 AM 64.9 °F - 63.0 °F 93% 30.04 in 9.0 mi South 5.8 mph - N/A   Clear
4:53 AM 64.0 °F - 63.0 °F 96% 30.04 in 8.0 mi SSW 5.8 mph - N/A   Clear
5:53 AM 64.0 °F - 62.1 °F 93% 30.05 in 9.0 mi SSW 5.8 mph - N/A   Clear
6:53 AM 64.9 °F - 63.0 °F 93% 30.07 in 7.0 mi South 4.6 mph - N/A   Clear
7:53 AM 70.0 °F - 66.0 °F 87% 30.08 in 10.0 mi South 4.6 mph - N/A   Clear
8:53 AM 73.0 °F - 66.0 °F 79% 30.10 in 10.0 mi SSW 5.8 mph - N/A   Clear
9:53 AM 75.9 °F - 66.9 °F 74% 30.10 in 10.0 mi SSW 4.6 mph - N/A   Clear
10:53 AM 79.0 °F - 68.0 °F 69% 30.10 in 10.0 mi Variable 3.5 mph - N/A   Clear
11:53 AM 80.1 °F 82.3 °F 66.9 °F 64% 30.10 in 10.0 mi South 5.8 mph - N/A   Scattered Clouds
12:53 PM 81.0 °F 83.0 °F 66.0 °F 60% 30.08 in 10.0 mi Calm Calm - N/A   Clear
1:53 PM 82.9 °F 85.0 °F 66.0 °F 56% 30.07 in 10.0 mi South 4.6 mph - N/A   Scattered Clouds
2:53 PM 81.0 °F 82.7 °F 64.9 °F 58% 30.06 in 10.0 mi SSW 4.6 mph - N/A   Partly Cloudy
3:53 PM 82.9 °F 85.0 °F 66.0 °F 56% 30.04 in 10.0 mi ESE 5.8 mph - N/A   Overcast
4:53 PM 82.9 °F 84.4 °F 64.0 °F 53% 30.03 in 10.0 mi South 4.6 mph - N/A   Clear
5:53 PM 82.9 °F 84.6 °F 64.9 °F 54% 30.02 in 10.0 mi SSE 3.5 mph - N/A   Clear
6:53 PM 81.0 °F 83.3 °F 66.9 °F 62% 30.03 in 10.0 mi SSE 3.5 mph - N/A   Clear
7:53 PM 75.0 °F - 68.0 °F 79% 30.03 in 10.0 mi SSE 3.5 mph - N/A   Clear
8:53 PM 72.0 °F - 66.0 °F 81% 30.04 in 10.0 mi SSE 5.8 mph - N/A   Clear
9:53 PM 71.1 °F - 66.0 °F 84% 30.06 in 10.0 mi SE 6.9 mph - N/A   Clear
10:53 PM 70.0 °F - 66.0 °F 87% 30.06 in 10.0 mi SSE 5.8 mph - N/A   Clear
11:53 PM 70.0 °F - 64.9 °F 84% 30.06 in 10.0 mi South 5.8 mph - N/A   Clear